EW0380 Weather Reports


Display with metric or nautical units.
time (UTC)temp
F
wind
direction
speed
MPH
gust
MPH
rain 1hr
in
rain 24hr
in
rain mn
in
humidity
%
barometer
mb
20260906231720 70 63 2.0 5.0 0.00 0.00 0.00 75 1018.1
20260906230720 71 359 4.0 5.0 0.00 0.00 0.00 73 1017.8
20260906225720 71 30 6.0 7.0 0.00 0.00 0.00 71 1017.8
20260906224720 71 37 2.0 3.0 0.00 0.00 0.00 71 1017.8
20260906223720 72 49 5.0 6.0 0.00 0.00 0.00 72 1017.8
20260906222720 72 7 5.0 6.0 0.00 0.00 0.00 71 1017.8
20260906221720 72 27 5.0 8.0 0.00 0.00 0.00 70 1017.8
20260906220720 72 359 4.0 6.0 0.00 0.00 0.00 70 1017.8
20260906215720 73 22 5.0 8.0 0.00 0.00 0.00 69 1017.4
20260906214720 73 31 4.0 7.0 0.00 0.00 0.00 66 1017.5
20260906213740 73 1 7.0 9.0 0.00 0.00 0.00 67 1017.5
20260906212721 74 17 4.0 6.0 0.00 0.00 0.00 65 1017.5
20260906211720 74 353 6.0 8.0 0.00 0.00 0.00 64 1017.5
20260906210720 74 30 6.0 9.0 0.00 0.00 0.00 63 1017.5
20260906205720 74 31 7.0 9.0 0.00 0.00 0.00 60 1017.5
20260906204720 74 353 4.0 6.0 0.00 0.00 0.00 62 1017.4
20260906203720 74 10 7.0 12.0 0.00 0.00 0.00 59 1017.4
20260906202740 75 356 4.0 6.0 0.00 0.00 0.00 65 1017.2
20260906201741 75 11 4.0 6.0 0.00 0.00 0.00 63 1017.2
20260906200720 74 10 2.0 4.0 0.00 0.00 0.00 65 1017.1
20260906195720 74 359 9.0 15.0 0.00 0.00 0.00 65 1017.4
20260906194720 74 351 11.0 16.0 0.00 0.00 0.00 61 1017.5
20260906193754 75 6 5.0 7.0 0.00 0.00 0.00 66 1017.5
20260906192720 75 345 9.0 15.0 0.00 0.00 0.00 64 1017.5
20260906191720 75 340 4.0 6.0 0.00 0.00 0.00 64 1017.8
20260906190720 74 12 8.0 14.0 0.00 0.00 0.00 70 1017.5
20260906185720 74 35 5.0 6.0 0.00 0.00 0.00 68 1017.8
20260906184720 74 23 8.0 12.0 0.00 0.00 0.00 68 1017.9
20260906183720 74 360 9.0 13.0 0.00 0.00 0.00 72 1017.9
20260906182720 75 342 9.0 15.0 0.00 0.00 0.00 69 1017.5
20260906181720 74 16 6.0 11.0 0.00 0.00 0.00 67 1017.8
20260906180720 74 6 6.0 11.0 0.00 0.00 0.00 70 1017.8
20260906175721 74 10 4.0 5.0 0.00 0.00 0.00 67 1017.8
20260906174720 75 193 3.0 5.0 0.00 0.00 0.00 61 1017.5
20260906173720 74 17 4.0 7.0 0.00 0.00 0.00 67 1017.5
20260906172801 72 18 1.0 2.0 0.00 0.00 0.00 72 1017.8
20260906171720 73 3 7.0 9.0 0.00 0.00 0.00 71 1017.9
20260906170720 75 351 4.0 7.0 0.00 0.00 0.00 67 1017.9
20260906165740 73 4 5.0 7.0 0.00 0.00 0.00 69 1017.8
20260906164720 74 21 4.0 6.0 0.00 0.00 0.00 64 1018.2
20260906163720 76 356 3.0 5.0 0.00 0.00 0.00 67 1018.3
20260906162721 74 0.0 0.0 0.00 0.00 0.00 66 1018.2
20260906161720 75 338 2.0 2.0 0.00 0.00 0.00 67 1018.3
20260906160720 74 22 3.0 6.0 0.00 0.00 0.00 66 1018.2
20260906155720 74 325 3.0 4.0 0.00 0.00 0.00 63 1018.2
20260906154740 75 0.0 0.0 0.00 0.00 0.00 62 1018.2
20260906153720 74 152 3.0 6.0 0.00 0.00 0.00 66 1018.2
20260906152719 75 300 1.0 5.0 0.00 0.00 0.00 66 1018.2
20260906151720 74 334 2.0 5.0 0.00 0.00 0.00 63 1018.2
20260906150720 74 102 0.0 2.0 0.00 0.00 0.00 61 1018.2
20260906145720 73 10 1.0 4.0 0.00 0.00 0.00 67 1018.2
20260906144721 73 359 1.0 2.0 0.00 0.00 0.00 67 1018.2
20260906143721 73 65 1.0 2.0 0.00 0.00 0.00 63 1017.9
20260906142720 72 10 2.0 4.0 0.00 0.00 0.00 68 1017.8
20260906141720 71 0 0.0 2.0 0.00 0.00 0.00 75 1017.9
20260906140720 72 183 3.0 5.0 0.00 0.00 0.00 74 1017.9
20260906135741 71 168 1.0 2.0 0.00 0.00 0.00 72 1017.5
20260906134740 71 102 1.0 2.0 0.00 0.00 0.00 82 1017.5
20260906133720 70 172 2.0 4.0 0.00 0.00 0.00 84 1017.5
20260906132720 69 181 0.0 2.0 0.00 0.00 0.00 86 1017.5
20260906131720 68 136 1.0 4.0 0.00 0.00 0.00 87 1017.5
20260906130720 66 0.0 0.0 0.00 0.00 0.00 93 1017.4
20260906125720 65 0.0 0.0 0.00 0.00 0.00 97 1017.4
20260906124801 63 0.0 0.0 0.00 0.00 0.00 99 1017.3
20260906123720 62 66 1.0 2.0 0.00 0.00 0.00 99 1017.0
20260906122720 61 0.0 0.0 0.00 0.00 0.00 99 1017.3
20260906121721 60 0.0 0.0 0.00 0.00 0.00 99 1017.0
20260906120740 59 0.0 0.0 0.00 0.00 0.00 99 1017.0
20260906115720 59 0.0 0.0 0.00 0.00 0.00 99 1017.0
20260906114720 59 0.0 0.0 0.00 0.00 0.00 99 1016.7
20260906113721 58 0.0 0.0 0.00 0.00 0.00 99 1016.7
20260906112740 58 0.0 0.0 0.00 0.00 0.00 99 1016.7
20260906111720 59 0.0 0.0 0.00 0.00 0.00 99 1016.8
20260906110720 58 0.0 0.0 0.00 0.00 0.00 99 1016.4
20260906105720 59 0.0 0.0 0.00 0.00 0.00 99 1016.5
20260906104741 59 0.0 0.0 0.00 0.00 0.00 99 1016.5
20260906103720 59 0.0 0.0 0.00 0.00 0.00 99 1016.5
20260906102720 59 0.0 0.0 0.00 0.00 0.00 99 1016.5
20260906101720 59 0.0 0.0 0.00 0.00 0.00 99 1016.5
20260906100741 60 0.0 0.0 0.00 0.00 0.00 99 1016.2
20260906095720 60 0.0 0.0 0.00 0.00 0.00 99 1016.5
20260906094719 60 0.0 0.0 0.00 0.00 0.00 99 1016.5
20260906093732 59 0.0 0.0 0.00 0.00 0.00 99 1016.2
20260906092720 59 0.0 0.0 0.00 0.00 0.00 99 1016.2
20260906091721 58 0.0 0.0 0.00 0.00 0.00 99 1016.2
20260906090720 58 0.0 0.0 0.00 0.00 0.00 99 1016.2
20260906085720 58 0.0 0.0 0.00 0.00 0.00 99 1015.8
20260906084720 58 0.0 0.0 0.00 0.00 0.00 99 1016.1
20260906083720 57 0.0 0.0 0.00 0.00 0.00 99 1015.8
20260906082720 57 0.0 0.0 0.00 0.00 0.00 99 1015.8
20260906081720 58 0.0 0.0 0.00 0.00 0.00 99 1015.8
20260906080720 58 0.0 0.0 0.00 0.00 0.00 99 1015.8
20260906075720 57 0.0 0.0 0.00 0.00 0.00 99 1015.4
20260906074721 57 0.0 0.0 0.00 0.00 0.00 99 1015.8
20260906073720 58 0.0 0.0 0.00 0.00 0.00 99 1015.5
20260906072720 58 0.0 0.0 0.00 0.00 0.00 99 1015.8
20260906071720 58 0.0 0.0 0.00 0.00 0.00 99 1015.5
20260906070720 57 0.0 0.0 0.00 0.00 0.00 99 1015.5
20260906065720 57 0.0 0.0 0.00 0.00 0.00 99 1015.1
20260906064720 58 0.0 0.0 0.00 0.00 0.00 99
20260906063720 58 0.0 0.0 0.00 0.00 0.00 99
20260906062720 58 0.0 0.0 0.00 0.00 0.00 99
20260906061720 58 18 0.0 2.0 0.00 0.00 0.00 99 1015.5
20260906060720 58 0.0 0.0 0.00 0.00 0.00 99 1015.2
20260906055720 57 0.0 0.0 0.00 0.00 0.00 99 1015.5
20260906054720 58 0.0 0.0 0.00 0.00 0.00 99 1015.8
20260906053720 58 0.0 0.0 0.00 0.00 0.00 99 1015.5
20260906052720 58 0.0 0.0 0.00 0.00 0.00 99 1015.5
20260906051741 58 0.0 0.0 0.00 0.00 0.00 99 1015.5
20260906050720 59 0.0 0.0 0.00 0.00 0.00 99 1015.9
20260906045720 59 0.0 0.0 0.00 0.00 0.00 99 1015.2
20260906044801 59 0.0 0.0 0.00 0.00 0.00 99 1015.2
20260906043720 59 0.0 0.0 0.00 0.00 0.00 99 1015.5
20260906042720 59 0.0 0.0 0.00 0.00 0.00 99 1015.5
20260906041720 59 0.0 0.0 0.00 0.00 0.00 99 1015.5
20260906040720 60 0.0 0.0 0.00 0.00 0.00 99 1015.5
20260906035720 60 0.0 0.0 0.00 0.00 0.00 99 1015.5
20260906034720 59 0.0 0.0 0.00 0.00 0.00 99 1015.1
20260906033720 60 0.0 0.0 0.00 0.00 0.00 99 1015.5
20260906032741 60 0.0 0.0 0.00 0.00 0.00 99 1015.5
20260906031720 60 0.0 0.0 0.00 0.00 0.00 99 1015.5
20260906030720 60 0.0 0.0 0.00 0.00 0.00 99 1015.1
20260906025720 60 0.0 0.0 0.00 0.00 0.00 99 1015.2
20260906024720 61 0.0 0.0 0.00 0.00 0.00 99 1015.2
20260906023719 61 0.0 0.0 0.00 0.00 0.00 99 1015.2
20260906022719 61 0.0 0.0 0.00 0.00 0.00 99 1015.2
20260906021720 61 0.0 0.0 0.00 0.00 0.00 99 1015.2
20260906020800 62 0.0 0.0 0.00 0.00 0.00 99 1015.2
20260906015720 62 0.0 0.0 0.00 0.00 0.00 99 1015.2
20260906014720 62 0.0 0.0 0.00 0.00 0.00 99 1015.1
20260906013719 62 0.0 0.0 0.00 0.00 0.00 99 1014.8
20260906012720 62 0.0 0.0 0.00 0.00 0.00 98 1015.1
20260906011719 62 0.0 0.0 0.00 0.00 0.00 99 1014.8
20260906010720 62 0.0 0.0 0.00 0.00 0.00 97 1014.7
20260906005719 63 0.0 0.0 0.00 0.00 0.00 96 1014.5
20260906004720 64 0.0 0.0 0.00 0.00 0.00 94 1014.5
20260906003719 64 0.0 0.0 0.00 0.00 0.00 91 1014.5
20260906002740 64 0.0 0.0 0.00 0.00 0.00 91 1014.5
20260906001720 64 0.0 0.0 0.00 0.00 0.00 90 1014.1
20260906000719 66 0.0 0.0 0.00 0.00 0.00 84 1014.2
20260905235740 67 0.0 0.0 0.00 0.00 0.00 80 1014.2
20260905234719 69 0.0 0.0 0.00 0.00 0.00 74 1014.3
20260905233739 71 0.0 0.0 0.00 0.00 0.00 70 1014.6
20260905232740 71 48 1.0 2.0 0.00 0.00 0.00 68 1014.3